Flight Track Log - Related Links

Times and Time Zones

All times are in EDT time to prevent confusion due to time zone crossing. See the N762NC flight status page for this flight to view local times or setup timezone preferences in your user account.

Time Position Orientation Groundspeed Altitude Reporting Facility
EDT Latitude Longitude Course Direction KTS MPH feet Rate Location/Type
Thu 06:11:41 PM 33.6517 -84.4781 257° West 377 434 2,100  Level Atlanta Center
Thu 06:12:41 PM 33.6719 -84.5631 286° West 310 357 4,700 2,550 Climbing Atlanta Center
Thu 06:13:41 PM 33.6906 -84.6431 286° West 283 326 7,200 2,250 Climbing Atlanta Center
Thu 06:14:41 PM 33.7150 -84.7356 288° West 313 360 9,200 1,400 Climbing Atlanta Center
Thu 06:15:41 PM 33.7039 -84.8428 263° West 313 360 10,000 1,150 Climbing Atlanta Center
Thu 06:16:41 PM 33.6844 -84.9675 259° West 363 418 11,500 2,250 Climbing Atlanta Center
Thu 06:17:00 PM 33.6236 -84.9726 257° West  Level Estimated
Thu 06:17:41 PM 33.6706 -85.1047 263° West 388 447 14,500  Level Atlanta Center
Thu 06:18:41 PM 33.6528 -85.2267 260° West 388 447 17,400 1,750 Climbing Atlanta Center
Thu 06:19:41 PM 33.6308 -85.3461 258° West 381 438 18,000 300 Climbing Atlanta Center
Thu 06:20:41 PM 33.6022 -85.4731 255° West 386 444 18,000 -500 Level Atlanta Center
Thu 06:21:41 PM 33.5861 -85.6072 262° West 402 463 17,000 -1,500 Descending Atlanta Center
Thu 06:22:41 PM 33.5781 -85.7419 266° West 414 476 15,000 -2,033 Descending Atlanta Center
Thu 06:23:42 PM 33.5781 -85.8714 270° West 395 455 12,900 -2,000 Descending Atlanta Center
Thu 06:24:41 PM 33.5828 -85.9814 273° West 390 449 11,000 -1,791 Descending Atlanta Center
Thu 06:24:49 PM 33.5800 -86.0161 265° West 378 435 10,900  Descending Atlanta Center
Thu 06:25:41 PM 33.5744 -86.1058 266° West 379 436 11,000  Climbing Atlanta Center
Thu 06:25:50 PM 33.5697 -86.1406 261° West 370 426 10,900  Descending Atlanta Center
Thu 06:26:41 PM 33.5639 -86.2303 266° West 379 436 11,000 -90 Climbing Atlanta Center
Thu 06:26:57 PM 33.5547 -86.2747 256° West 376 433 10,800 -600 Descending Atlanta Center
Thu 06:27:41 PM 33.5556 -86.3422 271° West 369 425 10,400 -700 Descending Atlanta Center
Thu 06:27:57 PM 33.5506 -86.3869 262° West 301 346 10,100 -1,300 Descending Atlanta Center
Thu 06:28:41 PM 33.5475 -86.4417 266° West 334 384 9,100 -1,672 Descending Atlanta Center
Thu 06:28:58 PM 33.5444 -86.4839 265° West 278 320 8,400 -1,700 Descending Atlanta Center
Thu 06:29:41 PM 33.5331 -86.5358 255° West 309 356 7,400 -1,672 Descending Atlanta Center
Thu 06:29:59 PM 33.5219 -86.5731 250° West 281 323 6,700 -1,700 Descending Atlanta Center
Thu 06:30:41 PM 33.5019 -86.6272 246° West 283 326 5,700 -1,574 Descending Atlanta Center
Thu 06:31:00 PM 33.4867 -86.6592 240° Southwest 278 320 5,100 -800 Descending Atlanta Center
Thu 06:31:41 PM 33.4733 -86.7036 250° West 271 312 4,900 -300 Descending Atlanta Center
Thu 06:32:00 PM 33.4644 -86.7281 246° West 205 236 4,800 -900 Descending Atlanta Center
Thu 06:32:41 PM 33.4550 -86.7678 254° West 237 273 4,000 -1,279 Descending Atlanta Center
Thu 06:33:01 PM 33.4525 -86.7925 263° West 184 212 3,500 -667 Descending Atlanta Center
Thu 06:34:02 PM 33.4553 -86.8522 273° West 180 207 3,100 -776 Descending Atlanta Center
Thu 06:34:57 PM 33.4922 -86.8758 332° Northwest 155 178 2,000 -730 Descending Atlanta Center
Thu 06:35:57 PM 33.5161 -86.8369 54° Northeast 135 155 1,700 -475 Descending Atlanta Center
Thu 06:37:16 PM 33.5444 -86.7881 55° Northeast 136 157 900 -608 Descending Atlanta Center
Thu 06:39:00 PM 33.5500 -86.7500 North  Level FlightAware Approximate

Login

Don't have an account? Register now (free) for customized features, flight alerts, and more!